Find Starlink 34520

NORAD ID: 64486 Int'l Des: 2025-133 Owner: SPXS Country: US Constellation: starlink operational
LEOCIRCULAR

現在のビュー

3D地球を読み込み中...

About Starlink 34520

Starlink 34520 (NORAD 64486) is a starlink constellation satellite (v2 mini) launched Jun 23, 2025 by SPXS of US. It operates in LEO, CIRCULAR orbit with a mass of 575.00 kg.

次回通過

Passes for default location (London). Set your location on the main map for personalized predictions.

高度履歴

Loading altitude history...

軌道要素

1 64486U 25133Q 26237.47692781 .00025782 00000-0 77108-3 0 9996
2 64486 53.1592 51.1555 0001042 93.0978 267.0144 15.34420460 67051
Epoch: Aug 25, 2026 • Age: 10 hours

現在のステータス

高度 462.5 km
遠地点 / 近地点 N/A
速度 7.64 km/s
衛星直下点 14.60°N, 79.06°W
打ち上げ日 Jun 23, 2025
運用期間 1.1 years
タイプ internet

技術仕様

分類 Payload
質量 575.00 kg
乾燥質量 530.00 kg
総質量 575.00 kg
長さ 0.30 m
直径 4.10 m
スパン 29.00 m
形状 Box + pan
製造者 SPXS
バスタイプ Starlink V2MO
フェーズステータス In Orbit
所有者/国 SPXS/US

Most Searched